SL-16 DEB

Satellite information

Favourite Embed

Satellite Type and Status

DEBRISIN ORBIT

Key statistics

Satellite SL-16 DEB at a glance.

Uptime

11894

Days in orbit

Revolutions

≈ 14.4

Per day

Orbit

LEO

Low Earth Orbit

Inclination

70.4

Latest

Satellite identification and parameters

Extended collection of information and parameters for SL-16 DEB.

Object identification

Identified? True

Debris? True

Object name: SL-16 DEB

International designator: 1993-016AX

Object number (NORAD): 39873

Object ID (CCSDS): 39873

Country: COMMONWEALTH OF INDEPENDENT STATES (CIS)

Current information (Y/N): Y

RCS size: SMALL

Orbital parameters

Period: 99.886 minutes

Inclination: 70.3936 deg

SMA: 7131.23 km

Apoapsis: 811.985 km

Periapsis: 694.205 km

RAAN: 38.6557 deg

Eccentricy: 0.00825798

Argument of periapsis: 182.0008 deg

Mean anomaly: 178.0807 deg

Mean motion: 14.41637593 rev/day

Mean motion (dot): 0.00019015 rev/day2

B* drag term: 0.0056031792 1/REarth

Two-line elements (TLE)

Creation date: Oct. 3, 2025, 1:06 p.m.

Reference frame: TEME

Reference center: EARTH

Epoch: Oct. 3, 2025, 12:06 a.m. UTC

TLE line 0: 0 SL-16 DEB

TLE line 1: 1 39873U 93016AX 25276.00458190 .00019015 00000-0 56032-2 0 9992

TLE line 2: 2 39873 70.3936 38.6557 0082580 182.0008 178.0807 14.41637593588315

Live tracking on map

Real-time ground track for satellite SL-16 DEB.

In-orbit conjunctions

A list of the most updated potential collisions computed for object SL-16 DEB.

Target Orbit TCA Probability of collision Miss distance Type
FENGYUN 1C DEB SSO 2025-08-25 01:30:43 0.0001720319 29.0 (m) DEBRIS
COSMOS 2082 LEO 2024-12-10 01:34:45 0.0001616514 171.0 (m) PAYLOAD
IRIDIUM 33 LEO 2024-11-14 19:15:39 0.0007051158 60.0 (m) PAYLOAD
NOAA 16 DEB SSO 2024-09-27 13:00:18 0.0003719643 975.0 (m) DEBRIS

Associated space launch

Second generation ELING satellite

SL-16 DEB was lifted into orbit during the mission ‘Zenit-2 | Tselina-2 13’, on board a Zenit-2 space rocket.

The launch took place on March 26, 1993, 2:21 a.m. from 45/1.

For more information about the launch, click the button.

Launch to space Zenit-2 | Tselina-2 13
Zenit-2 | Tselina-2 13

Agency: N/A

Status: Launch Successful

Launch date: March 26, 1993, 2:21 a.m. UTC

Rocket: Zenit-2

Launch pad: 45/1

Location: Baikonur Cosmodrome, Republic of Kazakhstan

...

Latest news about this satellite

There are no fresh news available about this satellite. Check back as we update our databases every day.


Newsletter sign-up

Weekly statistics, charts and insights to help you stay on top of the space industry.